STARLINK-30339, 57882

Orbit data source: Space-Track

STARLINK-30339, 57882 is a payload satellite owned by SpaceX/Seattle (US) in LEO that was launched on Sat, 16 Sep 2023 UTC via an FALCON 9 launch vehicle from the Air Force Eastern Test Range (AFETR). Payload-class satellites include a variety of spacecraft equipped with specific instruments for various scientific and technological missions. These include communications satellites like Starlink; space stations such as the ISS; scientific satellites like the Hubble; Earth observation satellites from companies like Planet Labs, Umbra, and HawkEye 360; GPS; miniature CubeSats for education and research; and military/defense satellites.

Loading next visibility...
Identifier
57882, 2023-144U
Orbit
LEO
Country
Flag of USUS
Related business
Manufacturer
SpaceX/Seattle
Mission
Operational Commercial Communications
Bus & Motor
STARLINK V2M, Unknown motor
Mass
730 kg wet, ~700 kg dry
Launch date (UTC)
2023-09-16 (3 years ago)
Launch vehicle
FALCON 9
Launch site
Air Force Eastern Test Range (AFETR)
Object type
Payload
Rocket body
Debris
Shape & HBR
Box + 2 Pan, 17.7 m
Radar Cross Section
33.884 m², Large (>1 m²)

Expand to show TLE details & history
Last TLE update: 2 days ago

TLE from 2 days ago
0 STARLINK-30339
1 57882U 23144U   26171.09106226 -.00001597  00000-0 -48562-4 0  9990
2 57882  43.0056  67.2947 0001169 263.2648  96.8071 15.27561283153294
Epoch: 2026-06-20T02:11Z
TLE epoch observation values (Epoch: 2026-06-20T02:11:07.779Z)
Latitude
0.00001°
Longitude
126.20163°
Altitude
482.976 km
Speed
7.626 km/s
True Right ascension
04h 29m 10s
True Declination
0° 00' 00"
Sunlit
Object was in daylight at epoch
Visualization orbit readout
Latitude
Unknown
Longitude
Unknown
Altitude
Unknown
Speed
Unknown
Apparent Right ascension
Unknown
Apparent Declination
Unknown
Sunlit
N/A
Visualization observer readout
Local Sidereal Time
21:41:28
Azimuth
Unknown
Elevation
Unknown
Doppler factor
Unknown
Orbital elements
Apogee altitude
485.852 km
Perigee altitude
484.247 km
Semi-major axis
6,863.186 km
Eccentricity
0.00012
Inclination
43.0056°
RAAN
67.2947°
Arg. of periapsis
263.2648°
True anomaly
96.8204°
Mean anomaly
96.8071°
Eccentric anomaly
96.81375°
Mean motion
3.81728 °/min
Orbital period
94.31 mins
BSTAR
-0.000048562
Loading maneuver chart data...
Computing Atmospheric mass density...
Loading historical data...
Loading historical data...
Loading historical data...
Loading historical data...
Loading historical data...
Loading historical data...
Loading historical data...

Documentation

Showing up to 5 results
|